Flag for Pakistan Weather past 2 weeks in Islamabad, Pakistan

Now
52 °F

Fog.


Feels Like: 49 °F
Forecast: 49 / 55 °F
Wind: 9 mph from West

Location: Islamabad Airport

Current Time: Mar 2, 2015 at 12:56:18 AM

Latest Report: Mar 2, 2015 at 12:00 AM


Visibility: 2 mi

Pressure: 29.83 "Hg

Humidity: 94%

Dew point: 50 °F

Location of IslamabadLocation

Historic Weather in Islamabad — Graph

°F

Islamabad temperature yesterday

Maximum temperature yesterday: 57 °F (at 4:00 AM)
Minimum temperature yesterday: 52 °F (at 6:00 AM)
Average temperature yesterday: 54 °F

Past Weeks' High & Low Weather Summary

 TemperatureHumidityPressure
High77 °F (Feb 22, 2:00 PM)100% (Feb 22, 7:00 AM)30.15 "Hg (Feb 22, 7:00 AM)
Low46 °F (Feb 26, 6:00 AM)35% (Feb 27, 4:00 PM)29.68 "Hg (Feb 25, 5:00 AM)
Average59 °F75%29.98 "Hg
* Reported Midnight between Feb 14 and Feb 15 — Midnight between Mar 1 and Mar 2, Islamabad, Weather by CustomWeather, © 2015

Note: Actual official high and low records may vary slightly from our data, if they occured in-between our weather recording intervals... More about our weather records

Advertising

Islamabad weather history for previous 24 hours

 ConditionsComfort  
Time TempWeatherWind HumidityBarometerVisibility
12:00 AM
Mon, Mar 2
52 °FFog.9 mph94%29.83 "Hg2 mi
11:00 PM
Sun, Mar 1
52 °FLight rain. Partly cloudy.12 mph94%29.86 "Hg2 mi
10:00 PM52 °FRain. Partly cloudy.9 mph94%29.86 "Hg2 mi
9:00 PM54 °FLight rain. Partly cloudy.12 mph94%29.86 "Hg2 mi
8:00 PM54 °FRain. Partly cloudy.12 mph100%29.86 "Hg2 mi
7:00 PM54 °FRain. Partly cloudy.12 mph100%29.86 "Hg2 mi
6:00 PM54 °FRain. Broken clouds.12 mph100%29.86 "Hg1 mi
5:00 PM54 °FRain. More clouds than sun.9 mph100%29.86 "Hg1 mi
3:00 PM55 °FLight rain. Broken clouds.5 mph88%29.89 "Hg2 mi
2:00 PM55 °FLight rain. Broken clouds.7 mph88%29.92 "Hg2 mi
1:00 PM55 °FLight rain. Broken clouds.7 mph88%29.95 "Hg2 mi
12:00 PM55 °FLight rain. Broken clouds.7 mph82%29.98 "Hg2 mi
11:00 AM55 °FLight rain. Broken clouds.7 mph82%29.98 "Hg2 mi
10:00 AM55 °FBroken clouds.7 mph82%29.98 "Hg4 mi
9:00 AM54 °FBroken clouds.12 mph82%29.98 "Hg4 mi
8:00 AM52 °FRain. Broken clouds.16 mph88%29.98 "Hg2 mi
7:00 AM52 °FRain. Broken clouds.16 mph88%29.98 "Hg2 mi
6:00 AM52 °FRain. Partly cloudy.12 mph88%30.04 "Hg2 mi
4:00 AM57 °FRain. Partly cloudy.14 mph77%30.01 "Hg4 mi
2:00 AM55 °FPassing clouds.No wind72%29.98 "Hg4 mi
1:00 AM55 °FPassing clouds.No wind72%30.01 "Hg4 mi
12:00 AM55 °FPassing clouds.5 mph72%30.01 "Hg2 mi
Weather by CustomWeather, © 2015

See weather overviewHow to use our weather pages